Weather History for Cape Cod CGAS, MA

Change the Weather History Date:

Friday, February 8, 2013

  Actual Average Record
Temperature  
Mean Temperature 32 °F -  
Max Temperature 36 °F 36 °F 57 °F (2009)
Min Temperature 28 °F 20 °F 12 °F (2000)
Degree Days  
Heating Degree Days 33    
Moisture  
Dew Point 29 °F    
Average Humidity 89    
Maximum Humidity 100    
Minimum Humidity 59    
Precipitation  
Precipitation 0.59 in - - ()
Sea Level Pressure  
Sea Level Pressure 30.00 in    
Wind  
Wind Speed 17 mph (ENE)    
Max Wind Speed 46 mph    
Max Gust Speed 70 mph    
Visibility 4 miles    
Events Rain , Snow    
Averages and records for this station are not official NWS values.
T = Trace of Precipitation, MM = Missing Value Source: NWS Daily Summary

Daily Weather History Graph

Daily Weather History Graph

Search for Another Location

Airport:

Trip Planner

Search our weather history database for the weather conditions in past years. The results will help you decide how hot, cold, wet, or windy it might be!

Date:

Astronomy

Feb. 08, 2013 Rise Set
Actual Time 6:46 AM EST 5:06 PM EST
Civil Twilight 6:17 AM EST 5:35 PM EST
Nautical Twilight 5:44 AM EST 6:08 PM EST
Astronomical Twilight 5:12 AM EST 6:41 PM EST
Moon 5:13 AM EST (2/8) 3:36 PM EST (2/8)
Length of Visible Light 11h 18m
Length of Day
10h 20m
Waning Crescent, 3% of the Moon is Illuminated
Feb 8
Waning Crescent
Feb 10
New
Feb 17
First Quarter
Feb 25
Full
Mar 4
Last Quarter

Hourly Weather History & Observations

Time (EST) Temp. Windchill Dew Point Humidity Pressure Visibility Wind Dir Wind Speed Gust Speed Precip Events Conditions
12:15 AM 28.4 °F 22.2 °F 21.2 °F 74% 30.46 in 10.0 mi ENE 5.8 mph - N/A   Overcast
12:35 AM 28.4 °F 20.4 °F 21.2 °F 74% 30.46 in 10.0 mi ENE 8.1 mph - N/A   Overcast
12:55 AM 28.4 °F 20.4 °F 21.2 °F 74% 30.44 in 10.0 mi ENE 8.1 mph - N/A   Overcast
1:15 AM 28.4 °F 20.4 °F 23.0 °F 80% 30.44 in 10.0 mi ENE 8.1 mph - N/A   Overcast
1:35 AM 28.4 °F 19.7 °F 23.0 °F 80% 30.43 in 10.0 mi ENE 9.2 mph - N/A   Overcast
1:55 AM 28.4 °F 20.4 °F 23.0 °F 80% 30.42 in 10.0 mi ENE 8.1 mph - N/A   Overcast
2:15 AM 28.4 °F 20.4 °F 23.0 °F 80% 30.41 in 10.0 mi East 8.1 mph - N/A   Overcast
2:35 AM 30.2 °F 21.3 °F 23.0 °F 75% 30.40 in 10.0 mi East 10.4 mph 17.3 mph N/A   Overcast
2:55 AM 30.2 °F 20.2 °F 23.0 °F 75% 30.39 in 10.0 mi East 12.7 mph 17.3 mph N/A   Overcast
3:15 AM 30.2 °F 21.3 °F 23.0 °F 75% 30.38 in 10.0 mi East 10.4 mph - N/A   Overcast
3:35 AM 30.2 °F 19.8 °F 23.0 °F 75% 30.38 in 10.0 mi East 13.8 mph - N/A   Overcast
3:55 AM 32.0 °F 23.6 °F 23.0 °F 69% 30.37 in 10.0 mi East 10.4 mph - N/A   Overcast
4:15 AM 32.0 °F 22.5 °F 23.0 °F 69% 30.37 in 10.0 mi East 12.7 mph 18.4 mph N/A   Overcast
4:35 AM 32.0 °F 22.5 °F 23.0 °F 69% 30.37 in 10.0 mi East 12.7 mph - N/A   Overcast
4:55 AM 32.0 °F 22.1 °F 24.8 °F 75% 30.35 in 10.0 mi East 13.8 mph 19.6 mph N/A   Overcast
5:15 AM 32.0 °F 21.6 °F 24.8 °F 75% 30.34 in 10.0 mi East 15.0 mph 21.9 mph N/A   Overcast
5:35 AM 32.0 °F 21.2 °F 24.8 °F 75% 30.33 in 10.0 mi East 16.1 mph 21.9 mph N/A   Overcast
5:55 AM 32.0 °F 22.1 °F 24.8 °F 75% 30.32 in 10.0 mi East 13.8 mph 20.7 mph N/A   Overcast
6:15 AM 32.0 °F 22.1 °F 24.8 °F 75% 30.31 in 10.0 mi East 13.8 mph 20.7 mph N/A   Unknown
6:35 AM 32.0 °F 22.1 °F 24.8 °F 75% 30.31 in 10.0 mi East 13.8 mph 20.7 mph N/A   Overcast
6:55 AM 32.0 °F 21.6 °F 24.8 °F 75% 30.32 in 10.0 mi East 15.0 mph 23.0 mph N/A   Overcast
7:15 AM 32.0 °F 20.5 °F 24.8 °F 75% 30.31 in 10.0 mi East 18.4 mph 26.5 mph N/A   Overcast
7:35 AM 32.0 °F 20.5 °F 24.8 °F 75% 30.30 in 10.0 mi East 18.4 mph 26.5 mph N/A   Overcast
7:55 AM 32.0 °F 21.6 °F 24.8 °F 75% 30.29 in 10.0 mi East 15.0 mph 25.3 mph N/A   Overcast
8:15 AM 32.0 °F 22.5 °F 24.8 °F 75% 30.28 in 10.0 mi East 12.7 mph 23.0 mph N/A   Overcast
8:35 AM 32.0 °F 20.8 °F 24.8 °F 75% 30.28 in 10.0 mi East 17.3 mph 27.6 mph N/A   Overcast
8:55 AM 32.0 °F 21.6 °F 24.8 °F 75% 30.26 in 10.0 mi East 15.0 mph 26.5 mph N/A   Overcast
9:15 AM 32.0 °F 20.5 °F 26.6 °F 80% 30.25 in 9.0 mi East 18.4 mph 27.6 mph N/A   Overcast
9:35 AM 32.0 °F 20.5 °F 26.6 °F 80% 30.24 in 3.0 mi East 18.4 mph 24.2 mph N/A   Overcast
9:55 AM 32.0 °F 20.1 °F 28.4 °F 87% 30.23 in 2.5 mi East 19.6 mph 26.5 mph N/A   Mostly Cloudy
10:15 AM 32.0 °F 21.6 °F 28.4 °F 87% 30.22 in 1.5 mi East 15.0 mph 23.0 mph N/A   Mostly Cloudy
10:35 AM 32.0 °F 20.5 °F 30.2 °F 93% 30.20 in 1.0 mi East 18.4 mph 26.5 mph 0.01 in Snow Light Snow
10:55 AM 32.0 °F 19.8 °F 32.0 °F 100% 30.18 in 1.2 mi East 20.7 mph 31.1 mph 0.02 in Snow Light Snow
11:15 AM 32.0 °F 19.8 °F 32.0 °F 100% 30.16 in 1.2 mi East 20.7 mph 27.6 mph 0.01 in Snow Light Snow
11:35 AM 32.0 °F 20.5 °F 32.0 °F 100% 30.13 in 1.2 mi East 18.4 mph 26.5 mph 0.03 in Snow Light Snow
11:55 AM 32.0 °F 21.6 °F 32.0 °F 100% 30.11 in 1.2 mi East 15.0 mph 26.5 mph 0.05 in Snow Light Snow
12:15 PM 32.0 °F 21.6 °F 32.0 °F 100% 30.09 in 1.0 mi East 15.0 mph 28.8 mph 0.01 in Snow Light Snow
12:35 PM 32.0 °F 20.5 °F 32.0 °F 100% 30.07 in 1.2 mi East 18.4 mph 26.5 mph 0.02 in Snow Light Snow
12:55 PM 32.0 °F 20.8 °F 32.0 °F 100% 30.06 in 1.5 mi East 17.3 mph 26.5 mph 0.03 in Snow Light Snow
1:15 PM 32.0 °F 20.8 °F 32.0 °F 100% 30.04 in 1.2 mi East 17.3 mph 27.6 mph N/A Snow Light Snow
1:35 PM 32.0 °F 20.1 °F 32.0 °F 100% 30.02 in 1.2 mi East 19.6 mph 26.5 mph 0.01 in Snow Light Snow
1:55 PM 32.0 °F 20.5 °F 32.0 °F 100% 30.00 in 1.5 mi East 18.4 mph 27.6 mph 0.02 in Snow Light Snow
2:15 PM 32.0 °F 20.5 °F 32.0 °F 100% 29.98 in 1.5 mi East 18.4 mph 26.5 mph N/A Snow Light Snow
2:35 PM 32.0 °F 20.8 °F 32.0 °F 100% 29.97 in 1.2 mi East 17.3 mph 26.5 mph 0.01 in Snow Light Snow
2:55 PM 32.0 °F 20.8 °F 32.0 °F 100% 29.95 in 1.0 mi ENE 17.3 mph 25.3 mph 0.02 in Snow Light Snow
3:15 PM 32.0 °F 20.5 °F 32.0 °F 100% 29.91 in 1.0 mi ENE 18.4 mph 29.9 mph 0.01 in Snow Light Snow
3:35 PM 32.0 °F 18.6 °F 32.0 °F 100% 29.87 in 1.0 mi ENE 25.3 mph 29.9 mph 0.01 in   Overcast
3:55 PM 32.0 °F 18.9 °F 32.0 °F 100% 29.85 in 0.8 mi ENE 24.2 mph 31.1 mph 0.03 in Snow Light Snow
4:15 PM 32.0 °F - 32.0 °F 100% 29.83 in 0.5 mi North - - 0.01 in Snow Snow
4:35 PM 32.0 °F - 32.0 °F 100% 29.81 in 0.2 mi North - - 0.04 in Snow Heavy Snow
4:55 PM 32.0 °F - 32.0 °F 100% 29.79 in 0.2 mi North - - 0.08 in Snow Heavy Snow
5:15 PM 32.0 °F - 32.0 °F 100% 29.77 in 0.5 mi North - - 0.05 in Snow Snow
5:35 PM 32.0 °F 17.4 °F 32.0 °F 100% 29.73 in 0.5 mi ENE 31.1 mph 43.7 mph 0.13 in Snow Snow
5:55 PM 32.0 °F - 32.0 °F 100% 29.70 in 0.5 mi North - - 0.26 in Snow Snow
6:15 PM 32.0 °F - 32.0 °F 100% 29.67 in 0.5 mi North - - 0.05 in Rain Light Freezing Rain
6:35 PM 32.0 °F 17.0 °F 32.0 °F 100% 29.66 in 0.5 mi NE 33.4 mph 47.2 mph 0.13 in Rain Light Freezing Rain
6:55 PM 32.0 °F 15.2 °F 32.0 °F 100% 29.60 in 0.2 mi NE 43.7 mph 50.6 mph 0.24 in Snow Heavy Snow
7:15 PM 32.0 °F 16.0 °F 32.0 °F 100% 29.58 in 0.5 mi NE 39.1 mph 52.9 mph 0.08 in Snow Snow
7:35 PM 32.0 °F 15.4 °F 32.0 °F 100% 29.55 in 0.5 mi NE 42.6 mph 55.2 mph 0.19 in Snow Snow
7:55 PM 32.0 °F 16.3 °F 32.0 °F 100% 29.52 in 0.5 mi NE 36.8 mph 59.8 mph 0.38 in   Unknown
8:15 PM 32.0 °F 15.4 °F 32.0 °F 100% 29.48 in - NE 42.6 mph 62.1 mph 0.07 in Snow Heavy Snow
8:35 PM 32.0 °F 15.6 °F 32.0 °F 100% 29.46 in 0.5 mi NE 41.4 mph 62.1 mph 0.18 in Rain Light Freezing Rain
8:55 PM 32.0 °F 16.2 °F 32.0 °F 100% 29.45 in 0.5 mi NE 38.0 mph 63.3 mph 0.25 in   Unknown
9:15 PM 32.0 °F 15.8 °F 32.0 °F 100% 29.44 in 0.5 mi NE 40.3 mph 59.8 mph 0.03 in Rain Light Freezing Rain
9:35 PM 32.0 °F 14.9 °F 32.0 °F 100% 29.41 in 0.2 mi NE 46.0 mph 70.2 mph 0.15 in Snow Heavy Snow
9:55 PM - - - N/A% - - North - - N/A   Unknown
10:15 PM 32.0 °F 15.6 °F 32.0 °F 100% 29.36 in 0.2 mi NE 41.4 mph 56.4 mph 0.08 in Snow Heavy Snow
10:35 PM 32.0 °F 16.2 °F 32.0 °F 100% 29.36 in 0.2 mi NE 38.0 mph 58.7 mph 0.28 in   Overcast
10:55 PM 32.0 °F 15.2 °F 30.2 °F 93% 29.32 in 0.2 mi NE 43.7 mph 63.3 mph 0.53 in   Overcast
11:15 PM 32.0 °F 15.4 °F 30.2 °F 93% 29.31 in 0.2 mi NE 42.6 mph 57.5 mph 0.18 in   Overcast
11:35 PM 32.0 °F 15.8 °F 30.2 °F 93% 29.29 in 0.2 mi NNE 40.3 mph 57.5 mph 0.96 in Rain Heavy Rain
11:55 PM 32.0 °F 14.9 °F 30.2 °F 93% 29.26 in 0.2 mi NNE 46.0 mph 57.5 mph 1.46 in Rain Light Rain